Time,TemperatureF,DewpointF,PressureIn,WindDirection,WindDirectionDegrees,WindSpeedMPH,WindSpeedGustMPH,Humidity,HourlyPrecipIn,Conditions,Clouds,dailyrainin,SolarRadiationWatts/m^2,SoftwareType,DateUTC
2013-09-17 00:04:00,73.0,70.0,-100.00,SW,221,0.0,0.0,91,0.00,,,0.00,0.000000,,2013-09-17 05:04:00,
2013-09-17 00:42:00,72.0,70.0,-100.00,West,272,0.0,0.0,93,0.00,,,0.00,0.000000,,2013-09-17 05:42:00,
2013-09-17 00:52:00,72.0,70.0,-100.00,West,272,0.0,0.0,93,0.00,,,0.00,0.000000,,2013-09-17 05:52:00,
2013-09-17 01:02:00,72.0,70.0,-100.00,West,272,0.0,0.0,93,0.00,,,0.00,0.000000,,2013-09-17 06:02:00,
2013-09-17 01:42:00,71.0,69.0,-100.00,WSW,255,0.0,0.0,95,0.00,,,0.00,0.000000,,2013-09-17 06:42:00,
2013-09-17 01:52:00,71.0,69.0,-100.00,WSW,255,0.0,0.0,95,0.00,,,0.00,0.000000,,2013-09-17 06:52:00,
2013-09-17 02:02:00,71.0,69.0,-100.00,WSW,255,0.0,0.0,95,0.00,,,0.00,0.000000,,2013-09-17 07:02:00,
2013-09-17 02:43:00,71.0,70.0,-100.00,NNE,30,0.0,0.0,97,0.00,,,0.00,0.000000,,2013-09-17 07:43:00,
2013-09-17 02:52:00,71.0,70.0,-100.00,NNE,30,0.0,0.0,97,0.00,,,0.00,0.000000,,2013-09-17 07:52:00,
2013-09-17 03:02:00,71.0,70.0,-100.00,NNE,30,0.0,0.0,97,0.00,,,0.00,0.000000,,2013-09-17 08:02:00,
2013-09-17 03:42:00,70.0,69.0,-100.00,NNE,29,0.0,0.0,98,0.00,,,0.00,0.000000,,2013-09-17 08:42:00,
2013-09-17 03:52:00,70.0,69.0,-100.00,NNE,29,0.0,0.0,98,0.00,,,0.00,0.000000,,2013-09-17 08:52:00,
2013-09-17 04:02:00,70.0,69.0,-100.00,NNE,29,0.0,0.0,98,0.00,,,0.00,0.000000,,2013-09-17 09:02:00,
2013-09-17 04:43:00,70.0,69.0,-100.00,NNW,343,0.0,2.0,98,0.00,,,0.00,0.000000,,2013-09-17 09:43:00,
2013-09-17 04:53:00,70.0,69.0,-100.00,NNW,343,0.0,2.0,98,0.00,,,0.00,0.000000,,2013-09-17 09:53:00,
2013-09-17 05:03:00,70.0,69.0,-100.00,NNW,343,0.0,2.0,98,0.00,,,0.00,0.000000,,2013-09-17 10:03:00,
2013-09-17 05:42:00,69.0,68.0,-100.00,NNE,15,1.0,3.0,97,0.00,,,-99.99,0.000000,,2013-09-17 10:42:00,
2013-09-17 05:53:00,69.0,68.0,-100.00,NNE,15,1.0,3.0,97,0.00,,,-99.99,0.000000,,2013-09-17 10:53:00,
2013-09-17 06:03:00,69.0,68.0,-100.00,NNE,15,1.0,3.0,97,0.00,,,-99.99,0.000000,,2013-09-17 11:03:00,
2013-09-17 06:43:00,68.0,67.0,-100.00,NNE,31,0.0,3.0,98,0.00,,,0.00,0.000000,,2013-09-17 11:43:00,
2013-09-17 06:52:00,68.0,67.0,-100.00,NNE,31,0.0,3.0,98,0.00,,,0.00,0.000000,,2013-09-17 11:52:00,
2013-09-17 07:02:00,68.0,67.0,-100.00,NNE,31,0.0,3.0,98,0.00,,,0.00,0.000000,,2013-09-17 12:02:00,
2013-09-17 07:42:00,68.0,67.0,-100.00,NNE,12,0.0,2.0,98,0.00,,,0.00,4.000000,,2013-09-17 12:42:00,
2013-09-17 07:52:00,68.0,67.0,-100.00,NNE,12,0.0,2.0,98,0.00,,,0.00,4.000000,,2013-09-17 12:52:00,
2013-09-17 08:02:00,68.0,67.0,-100.00,NNE,12,0.0,2.0,98,0.00,,,0.00,4.000000,,2013-09-17 13:02:00,
2013-09-17 08:42:00,74.0,69.0,-100.00,NE,39,0.0,2.0,85,0.00,,,0.00,97.000000,,2013-09-17 13:42:00,
2013-09-17 08:52:00,74.0,69.0,-100.00,NE,39,0.0,2.0,85,0.00,,,0.00,97.000000,,2013-09-17 13:52:00,
2013-09-17 09:02:00,74.0,69.0,-100.00,NE,39,0.0,2.0,85,0.00,,,0.00,97.000000,,2013-09-17 14:02:00,
2013-09-17 09:42:00,79.0,70.0,-100.00,ENE,57,3.0,8.0,74,0.00,,,0.00,252.000000,,2013-09-17 14:42:00,
2013-09-17 09:52:00,79.0,70.0,-100.00,ENE,57,3.0,8.0,74,0.00,,,0.00,252.000000,,2013-09-17 14:52:00,
2013-09-17 10:02:00,79.0,70.0,-100.00,ENE,57,3.0,8.0,74,0.00,,,0.00,252.000000,,2013-09-17 15:02:00,
2013-09-17 10:44:00,83.0,70.0,-100.00,East,95,4.0,9.0,64,0.00,,,0.00,418.000000,,2013-09-17 15:44:00,
2013-09-17 10:53:00,83.0,70.0,-100.00,East,95,4.0,9.0,64,0.00,,,0.00,418.000000,,2013-09-17 15:53:00,
2013-09-17 11:03:00,83.0,70.0,-100.00,East,95,4.0,9.0,64,0.00,,,0.00,418.000000,,2013-09-17 16:03:00,
2013-09-17 11:42:00,87.0,71.0,-100.00,East,81,4.0,7.0,59,0.00,,,0.00,559.000000,,2013-09-17 16:42:00,
2013-09-17 11:54:00,87.0,71.0,-100.00,East,81,4.0,7.0,59,0.00,,,0.00,559.000000,,2013-09-17 16:54:00,
2013-09-17 12:03:00,87.0,71.0,-100.00,East,81,4.0,7.0,59,0.00,,,0.00,559.000000,,2013-09-17 17:03:00,
2013-09-17 12:43:00,90.0,70.0,-100.00,ENE,78,3.0,11.0,52,0.00,,,0.00,659.000000,,2013-09-17 17:43:00,
2013-09-17 12:53:00,90.0,70.0,-100.00,ENE,78,3.0,11.0,52,0.00,,,0.00,659.000000,,2013-09-17 17:53:00,
2013-09-17 13:02:00,90.0,70.0,-100.00,ENE,78,3.0,11.0,52,0.00,,,0.00,659.000000,,2013-09-17 18:02:00,
2013-09-17 13:42:00,91.0,65.0,-100.00,East,87,5.0,11.0,43,0.00,,,0.00,708.000000,,2013-09-17 18:42:00,
2013-09-17 13:52:00,91.0,65.0,-100.00,East,87,5.0,11.0,43,0.00,,,0.00,708.000000,,2013-09-17 18:52:00,
2013-09-17 14:02:00,91.0,65.0,-100.00,East,87,5.0,11.0,43,0.00,,,0.00,708.000000,,2013-09-17 19:02:00,
2013-09-17 14:42:00,92.0,66.0,-100.00,East,93,4.0,10.0,42,0.00,,,0.00,702.000000,,2013-09-17 19:42:00,
2013-09-17 14:52:00,92.0,66.0,-100.00,East,93,4.0,10.0,42,0.00,,,0.00,702.000000,,2013-09-17 19:52:00,
2013-09-17 15:02:00,92.0,66.0,-100.00,East,93,4.0,10.0,42,0.00,,,0.00,702.000000,,2013-09-17 20:02:00,
2013-09-17 15:42:00,93.0,64.0,-100.00,East,95,3.0,10.0,39,0.00,,,0.00,638.000000,,2013-09-17 20:42:00,
2013-09-17 15:52:00,93.0,64.0,-100.00,East,95,3.0,10.0,39,0.00,,,0.00,638.000000,,2013-09-17 20:52:00,
2013-09-17 16:02:00,93.0,64.0,-100.00,East,95,3.0,10.0,39,0.00,,,0.00,638.000000,,2013-09-17 21:02:00,
2013-09-17 16:44:00,92.0,63.0,-100.00,East,84,5.0,11.0,38,0.00,,,0.00,531.000000,,2013-09-17 21:44:00,
2013-09-17 16:54:00,92.0,63.0,-100.00,East,84,5.0,11.0,38,0.00,,,0.00,531.000000,,2013-09-17 21:54:00,
2013-09-17 17:04:00,92.0,63.0,-100.00,East,84,5.0,11.0,38,0.00,,,0.00,531.000000,,2013-09-17 22:04:00,
2013-09-17 17:44:00,92.0,65.0,-100.00,ENE,74,2.0,9.0,41,0.00,,,0.00,369.000000,,2013-09-17 22:44:00,
2013-09-17 17:53:00,92.0,65.0,-100.00,ENE,74,2.0,9.0,41,0.00,,,0.00,369.000000,,2013-09-17 22:53:00,
2013-09-17 18:03:00,92.0,65.0,-100.00,ENE,74,2.0,9.0,41,0.00,,,0.00,369.000000,,2013-09-17 23:03:00,
2013-09-17 18:42:00,84.0,69.0,-100.00,SW,221,0.0,4.0,61,0.00,,,0.00,81.000000,,2013-09-17 23:42:00,
2013-09-17 18:52:00,84.0,69.0,-100.00,SW,221,0.0,4.0,61,0.00,,,0.00,81.000000,,2013-09-17 23:52:00,
2013-09-17 19:02:00,84.0,69.0,-100.00,SW,221,0.0,4.0,61,0.00,,,0.00,81.000000,,2013-09-18 00:02:00,
2013-09-17 19:52:00,79.0,70.0,-100.00,SW,220,0.0,0.0,75,0.00,,,0.00,16.000000,,2013-09-18 00:52:00,
2013-09-17 20:01:00,79.0,70.0,-100.00,SW,220,0.0,0.0,75,0.00,,,0.00,16.000000,,2013-09-18 01:01:00,
2013-09-17 20:42:00,75.0,67.0,-100.00,NNE,29,0.0,1.0,77,0.00,,,0.00,0.000000,,2013-09-18 01:42:00,
2013-09-17 20:53:00,75.0,67.0,-100.00,NNE,29,0.0,1.0,77,0.00,,,0.00,0.000000,,2013-09-18 01:53:00,
2013-09-17 21:03:00,75.0,67.0,-100.00,NNE,29,0.0,1.0,77,0.00,,,0.00,0.000000,,2013-09-18 02:03:00,
2013-09-17 21:43:00,79.0,64.0,-100.00,ENE,72,2.0,4.0,61,0.00,,,0.00,0.000000,,2013-09-18 02:43:00,
2013-09-17 21:52:00,79.0,64.0,-100.00,ENE,72,2.0,4.0,61,0.00,,,0.00,0.000000,,2013-09-18 02:52:00,
2013-09-17 22:02:00,79.0,64.0,-100.00,ENE,72,2.0,4.0,61,0.00,,,0.00,0.000000,,2013-09-18 03:02:00,
2013-09-17 22:44:00,78.0,63.0,-100.00,ENE,78,3.0,6.0,60,0.00,,,0.00,0.000000,,2013-09-18 03:44:00,
2013-09-17 22:55:00,78.0,63.0,-100.00,ENE,78,3.0,6.0,60,0.00,,,0.00,0.000000,,2013-09-18 03:55:00,
2013-09-17 23:04:00,78.0,63.0,-100.00,ENE,78,3.0,6.0,60,0.00,,,0.00,0.000000,,2013-09-18 04:04:00,
2013-09-17 23:44:00,76.0,65.0,-100.00,ENE,71,1.0,5.0,69,0.00,,,0.00,0.000000,,2013-09-18 04:44:00,
2013-09-17 23:54:00,76.0,65.0,-100.00,ENE,71,1.0,5.0,69,0.00,,,0.00,0.000000,,2013-09-18 04:54:00,